This demonstration page uses our WeatherBlox Daily Observations layout. Learn more.

Left ArrowRight Arrow

Hourly Observations for October 2, 2022

Temp ( °F °C ) Dew Point ( °F °C ) Humidity (%) Winds ( mph kmh ) Pressure ( in mb ) Visibility ( mi km ) Precip ( " mm )
12:54 am 00:54 Clear 61 16.1 42 5.6 50 50 SSE 6 9 30.19 1022 10 16 0.00 0.00
1:54 am 01:54 Clear 59 15 42 5.6 53 53 SSE 5 7 30.19 1022 10 16 0.00 0.00
2:54 am 02:54 Clear 57 13.9 41 5 55 55 SSE 7 11 30.20 1023 10 16 0.00 0.00
4:54 am 04:54 Clear 57 13.9 41 5 55 55 S 5 7 30.21 1023 10 16 0.00 0.00
5:54 am 05:54 Clear 56 13.3 42 5.6 60 60 S 5 7 30.24 1024 10 16 0.00 0.00
6:54 am 06:54 Clear 55 12.8 42 5.6 62 62 S 5 7 30.26 1025 10 16 0.00 0.00
7:54 am 07:54 Sunny 56 13.3 43 6.1 62 62 SSE 3 6 30.27 1025 10 16 0.00 0.00
8:54 am 08:54 Sunny 61 16.1 43 6.1 51 51 SSE 6 9 30.28 1025 10 16 0.00 0.00
9:54 am 09:54 Sunny 66 18.9 44 6.7 45 45 S 8 13 30.29 1026 10 16 0.00 0.00
10:54 am 10:54 Sunny 71 21.7 44 6.7 38 38 S 8 13 30.28 1026 10 16 0.00 0.00
11:54 am 11:54 Sunny 74 23.3 45 7.2 36 36 SE 12 19 30.28 1025 10 16 0.00 0.00
12:54 pm 12:54 Sunny 78 25.6 44 6.7 30 30 SE 10 17 30.26 1025 10 16 0.00 0.00
1:54 pm 13:54 Sunny 82 27.8 43 6.1 25 25 SE 12 19 30.23 1024 10 16 0.00 0.00
2:54 pm 14:54 Sunny 83 28.3 40 4.4 22 22 SE 15 24 30.21 1023 10 16 0.00 0.00
3:54 pm 15:54 Sunny 84 28.9 41 5 22 22 SE 10 17 30.20 1023 10 16 0.00 0.00
4:54 pm 16:54 Sunny 82 27.8 39 3.9 22 22 SE 14 22 30.19 1022 10 16 0.00 0.00
5:54 pm 17:54 Sunny 81 27.2 40 4.4 23 23 SSE 15 24 30.18 1022 10 16 0.00 0.00
6:54 pm 18:54 Sunny 77 25 40 4.4 26 26 SE 10 17 30.19 1022 10 16 0.00 0.00
7:54 pm 19:54 Clear 73 22.8 40 4.4 30 30 SE 9 15 30.20 1023 10 16 0.00 0.00
8:54 pm 20:54 Clear 71 21.7 42 5.6 35 35 SE 12 19 30.21 1023 10 16 0.00 0.00
9:54 pm 21:54 Clear 69 20.6 43 6.1 39 39 SSE 12 19 30.22 1023 10 16 0.00 0.00
10:54 pm 22:54 Clear 63 17.2 43 6.1 48 48 S 5 7 30.22 1023 10 16 0.00 0.00
11:54 pm 23:54 Clear 61 16.1 43 6.1 51 51 S 6 9 30.22 1023 10 16 0.00 0.00

Powered by AerisWeather